Clarksburg, WV

12:46 PM EDT on October 14, 2019 (GMT -0400)
Benedum

Weather History for KCKB - August, 2019

Change the Weather History Date:

Friday, August 2, 2019

  Actual Average Record
Temperature  
Mean Temperature 77 °F -  
Max Temperature 91 °F 83 °F 98 °F (1955)
Min Temperature 64 °F 60 °F 49 °F (1940)
Cooling Degree Days 12    
Growing Degree Days 27 (Base 50)    
Moisture  
Dew Point 64 °F    
Average Humidity 72    
Maximum Humidity 93    
Minimum Humidity 42    
Precipitation  
Precipitation 0.58 in - - ()
Sea Level Pressure  
Sea Level Pressure 30.05 in    
Wind  
Wind Speed 3 mph ()    
Max Wind Speed 13 mph    
Max Gust Speed 22 mph    
Visibility 7.3 miles    
Events Rain , Thunderstorm    
Averages and records for this station are not official NWS values.
T = Trace of Precipitation, MM = Missing Value Source: Averaged Metar Reports

Daily Weather History Graph

Daily Weather History Graph

Search for Another Location

Airport or City:

Astronomy

Aug. 02, 2019 Rise Set
Actual Time 6:21 AM EDT 8:32 PM EDT
Civil Twilight 5:51 AM EDT 9:01 PM EDT
Nautical Twilight 5:15 AM EDT 9:38 PM EDT
Astronomical Twilight 4:35 AM EDT 10:18 PM EDT
Moon 7:58 AM EDT (8/2) 10:00 PM EDT (8/2)
Length of Visible Light 15h 10m
Length of Day
14h 10m
Waxing Crescent, 4% of the Moon is Illuminated
Aug 2
Waxing Crescent
Aug 7
First Quarter
Aug 15
Full
Aug 23
Last Quarter
Aug 30
New

Hourly Weather History & Observations

Time (EDT) Temp. Heat Index Dew Point Humidity Pressure Visibility Wind Dir Wind Speed Gust Speed Precip Events Conditions
12:53 AM 70.0 °F - 64.0 °F 81% 30.06 in 10.0 mi NE 5.8 mph - N/A   Clear
1:53 AM 70.0 °F - 64.9 °F 84% 30.06 in 10.0 mi SSE 4.6 mph - N/A   Clear
2:53 AM 70.0 °F - 64.9 °F 84% 30.06 in 10.0 mi Calm Calm - N/A   Mostly Cloudy
3:53 AM 68.0 °F - 64.0 °F 87% 30.06 in 8.0 mi Calm Calm - N/A   Scattered Clouds
4:53 AM 66.0 °F - 63.0 °F 90% 30.05 in 3.0 mi Calm Calm - N/A   Clear
5:04 AM 66.9 °F - 63.0 °F 87% 30.09 in 2.0 mi Calm Calm - N/A   Clear
5:17 AM 66.9 °F - 64.0 °F 90% 30.09 in 1.8 mi Calm Calm - N/A   Clear
5:22 AM 66.9 °F - 64.0 °F 90% 30.09 in 3.0 mi Calm Calm - N/A   Clear
5:29 AM 64.9 °F - 63.0 °F 93% 30.08 in 1.8 mi NNE 4.6 mph - N/A   Clear
5:44 AM 66.0 °F - 63.0 °F 90% 30.09 in 3.0 mi Calm Calm - N/A   Clear
5:53 AM 66.9 °F - 64.0 °F 90% 30.04 in 4.0 mi Calm Calm - N/A   Clear
6:17 AM 66.9 °F - 63.0 °F 87% 30.09 in 1.8 mi Calm Calm - N/A   Clear
6:43 AM 66.0 °F - 62.1 °F 87% 30.10 in 2.5 mi Calm Calm - N/A   Clear
6:53 AM 66.0 °F - 63.0 °F 90% 30.06 in 2.5 mi Calm Calm - N/A   Clear
7:10 AM 66.9 °F - 63.0 °F 87% 30.11 in 4.0 mi Calm Calm - N/A   Clear
7:53 AM 71.1 °F - 64.9 °F 81% 30.07 in 5.0 mi Calm Calm - N/A   Haze
8:53 AM 75.0 °F - 64.9 °F 71% 30.08 in 10.0 mi Calm Calm - N/A   Clear
9:53 AM 78.1 °F - 64.9 °F 64% 30.07 in 10.0 mi East 3.5 mph - N/A   Clear
10:53 AM 81.0 °F 82.5 °F 64.0 °F 56% 30.07 in 10.0 mi Calm Calm - N/A   Clear
11:53 AM 84.0 °F 84.5 °F 62.1 °F 47% 30.07 in 10.0 mi Calm Calm - N/A   Clear
12:53 PM 86.0 °F 87.3 °F 64.0 °F 48% 30.04 in 10.0 mi Variable 4.6 mph - N/A   Clear
1:53 PM 88.0 °F 89.6 °F 64.9 °F 46% 30.02 in 10.0 mi Variable 4.6 mph - N/A   Scattered Clouds
2:53 PM 88.0 °F 89.3 °F 64.0 °F 45% 30.01 in 10.0 mi Calm Calm - N/A   Partly Cloudy
3:53 PM 90.0 °F 91.3 °F 64.0 °F 42% 29.99 in 10.0 mi NW 4.6 mph - N/A   Clear
4:11 PM 90.0 °F 91.7 °F 64.9 °F 43% 30.03 in 10.0 mi North 8.1 mph - N/A Thunderstorm Partly Cloudy
4:45 PM 87.1 °F 88.9 °F 64.9 °F 48% 30.04 in 10.0 mi NE 6.9 mph - N/A   Mostly Cloudy
4:53 PM 82.0 °F 83.0 °F 62.1 °F 51% 30.01 in 10.0 mi ESE 12.7 mph 21.9 mph N/A   Overcast
5:08 PM 79.0 °F - 61.0 °F 54% 30.05 in 10.0 mi ESE 12.7 mph - N/A Thunderstorm Overcast
5:29 PM 80.1 °F 81.2 °F 62.1 °F 54% 30.04 in 10.0 mi SE 11.5 mph - 0.00 in Rain Light Rain
5:53 PM 81.0 °F 82.5 °F 64.0 °F 56% 29.98 in 10.0 mi South 3.5 mph - 0.00 in   Clear
6:53 PM 78.1 °F - 64.9 °F 64% 30.00 in 10.0 mi ESE 9.2 mph - N/A   Scattered Clouds
7:24 PM 79.0 °F - 64.9 °F 62% 30.05 in 10.0 mi ESE 6.9 mph - N/A Thunderstorm Partly Cloudy
7:53 PM 78.1 °F - 63.0 °F 60% 30.00 in 10.0 mi SE 4.6 mph - N/A Thunderstorm Scattered Clouds
8:03 PM 77.0 °F - 64.0 °F 64% 30.05 in 10.0 mi NE 4.6 mph - N/A   Mostly Cloudy
8:11 PM 75.9 °F - 64.0 °F 67% 30.07 in 10.0 mi NNE 11.5 mph - N/A Thunderstorm Thunderstorm
8:32 PM 73.0 °F - 64.9 °F 76% 30.08 in 1.8 mi NNW 11.5 mph - 0.12 in Rain , Thunderstorm Heavy Thunderstorms and Rain
8:53 PM 69.1 °F - 63.0 °F 81% 30.04 in 1.8 mi WSW 5.8 mph - 0.44 in Rain , Thunderstorm Heavy Thunderstorms and Rain
9:14 PM 69.1 °F - 63.0 °F 81% 30.06 in 6.0 mi East 3.5 mph - 0.11 in Rain , Thunderstorm Rain
9:25 PM 69.1 °F - 64.0 °F 84% 30.04 in 5.0 mi East 6.9 mph - 0.14 in Rain Rain
9:53 PM 69.1 °F - 64.0 °F 84% 30.01 in 10.0 mi Variable 3.5 mph - 0.14 in   Partly Cloudy
10:53 PM 66.9 °F - 63.0 °F 87% 30.04 in 10.0 mi North 4.6 mph - N/A   Clear
11:53 PM 66.9 °F - 64.0 °F 90% 30.03 in 8.0 mi North 3.5 mph - N/A   Clear